Location: Unspecified
(38.8340°N, 0.0000°E)
Time: 14:10:06
(UTC+00:00)

STARS - Visible Passes

Search period start: 04 April 2026 00:00
Search period end: 14 April 2026 00:00
Orbit: 575 x 589 km, 98.1° (Epoch: 29 March)

Date Brightness Start Highest point End Pass type
(mag) Time Alt. Az. Time Alt. Az. Time Alt. Az.
4 Apr ? 02:34:05 10° N 02:34:19 11° N 02:34:19 11° N visible
5 Apr ? 02:39:35 10° N 02:39:56 12° N 02:39:56 12° N visible
6 Apr ? 02:45:07 10° N 02:45:32 12° N 02:45:32 12° N visible
7 Apr ? 02:50:38 10° NNW 02:51:08 13° NNW 02:51:08 13° NNW visible
8 Apr ? 02:56:10 10° NNW 02:56:42 13° NNW 02:56:42 13° NNW visible
9 Apr ? 03:01:42 10° NNW 03:02:16 13° NNW 03:02:16 13° NNW visible
10 Apr ? 01:31:24 10° NNE 01:31:27 10° NE 01:31:27 10° NE visible
10 Apr ? 03:07:15 10° NNW 03:07:49 12° NNW 03:07:49 12° NNW visible
11 Apr ? 01:36:39 10° NNE 01:36:59 12° NNE 01:36:59 12° NNE visible
11 Apr ? 03:12:50 10° NNW 03:13:22 12° NNW 03:13:22 12° NNW visible
12 Apr ? 01:41:55 10° NNE 01:42:31 14° NNE 01:42:31 14° NNE visible
12 Apr ? 03:18:27 10° NNW 03:18:53 11° NW 03:18:53 11° NW visible
13 Apr ? 01:47:12 10° NNE 01:48:02 15° NNE 01:48:02 15° NNE visible
13 Apr ? 03:24:07 10° NW 03:24:24 11° NW 03:24:24 11° NW visible
